COSMOS 252 DEB, 3561

Orbit data source: Space-Track

COSMOS 252 DEB, 3561 is space debris in LEO originally from a launch on Fri, 01 Nov 1968 UTC launched from the Tyuratam Missile And Space Complex (TTMTR). Debris objects in space refer to the collection of defunct objects orbiting the Earth. Examples of debris include non-operational satellites, rocket bodies, and fragments generated from explosions, collisions, or faulty payload assembly.

Loading next visibility...
Identifier
3561, 1968-097P
Orbit
LEO
Country
Flag of CISCIS
Related business
Manufacturer
Unknown
Mission
Spacecraft
Bus & Motor
Unknown
Mass
Unknown
Launch date (UTC)
1968-11-01 (57 years ago)
Launch vehicle
Unknown
Launch site
Tyuratam Missile And Space Complex (TTMTR)
Object type
Payload
Rocket body
Debris
Shape & HBR
Unknown
Radar Cross Section
Medium (>0.1 m² and <1 m²)

Expand to show TLE details & history
Last TLE update: 14 hours ago

TLE from 14 hours ago
0 COSMOS 252 DEB
1 03561U 68097P   25261.14739010  .00003126  00000-0  53026-3 0  9997
2 03561  62.2693 159.4908 0371079 237.2855 119.1925 14.34642216802124
Epoch: 2025-09-18T03:32Z
TLE epoch observation values (Epoch: 2025-09-18T03:32:14.504Z)
Latitude
-0.00004°
Longitude
109.11719°
Altitude
914.798 km
Speed
7.324 km/s
True Right ascension
10h 37m 57s
True Declination
0° 00' 00"
Sunlit
Object was in daylight at epoch
Visualization orbit readout
Latitude
Unknown
Longitude
Unknown
Altitude
Unknown
Speed
Unknown
Apparent Right ascension
Unknown
Apparent Declination
Unknown
Sunlit
N/A
Visualization observer readout
Local Sidereal Time
10:24:31
Azimuth
Unknown
Elevation
Unknown
Doppler factor
Unknown
Orbital elements
Apogee altitude
1,040.624 km
Perigee altitude
509.735 km
Semi-major axis
7,153.316 km
Eccentricity
0.03711
Inclination
62.2693°
RAAN
159.4908°
Arg. of periapsis
237.2855°
True anomaly
122.82004°
Mean anomaly
119.1925°
Eccentric anomaly
121.01467°
Mean motion
3.58742 °/min
Orbital period
100.35 mins
BSTAR
0.00053026
Loading maneuver chart data...
Computing Atmospheric mass density...

Documentation

Showing up to 5 results
|